EW7356 Weather Reports


Display with metric or nautical units.
time (UTC)temp
F
wind
direction
speed
MPH
gust
MPH
rain 1hr
in
rain 24hr
in
rain mn
in
humidity
%
barometer
mb
20240623071529 57 202 0.0 2.0 0.00 0.14 0.01 98 1012.4
20240623071033 57 0 0.0 3.0 0.00 0.14 0.01 97 1012.8
20240623070531 57 0 0.0 4.0 0.00 0.14 0.01 98 1012.8
20240623070034 57 0 1.0 4.0 0.01 0.14 0.01 97 1012.8
20240623065530 57 190 0.0 3.0 0.01 0.14 0.01 97 1012.8
20240623065030 57 187 0.0 3.0 0.01 0.14 0.01 97 1012.9
20240623064533 57 0 0.0 2.0 0.01 0.14 0.01 98 1012.9
20240623064028 57 180 0.0 3.0 0.01 0.14 0.01 98 1012.8
20240623063531 57 190 0.0 4.0 0.01 0.14 0.01 98 1012.8
20240623063033 57 0 0.0 4.0 0.01 0.14 0.01 98 1012.9
20240623062532 57 168 1.0 4.0 0.01 0.14 0.01 98 1013.0
20240623062030 57 0 0.0 3.0 0.01 0.14 0.01 98 1013.4
20240623061543 57 190 0.0 2.0 0.01 0.14 0.01 98 1013.6
20240623061033 57 0 0.0 2.0 0.01 0.14 0.01 98 1013.6
20240623060531 57 196 0.0 2.0 0.01 0.14 0.01 98 1013.4
20240623060039 57 238 0.0 2.0 0.00 0.13 0.00 98 1013.4
20240623055530 57 0 0.0 3.0 0.00 0.13 0.00 98 1013.4
20240623055030 57 0 0.0 4.0 0.00 0.13 0.00 98 1013.4
20240623054532 57 190 1.0 4.0 0.00 0.13 0.00 97 1013.6
20240623054032 57 188 0.0 3.0 0.00 0.13 0.00 98 1013.6
20240623053532 57 0 0.0 2.0 0.00 0.13 0.00 97 1013.7
20240623053033 57 81 0.0 4.0 0.00 0.13 0.00 97 1013.6
20240623052531 57 188 1.0 4.0 0.00 0.13 0.00 97 1013.6
20240623052030 57 235 0.0 3.0 0.00 0.13 0.00 97 1013.6
20240623051535 57 0 0.0 3.0 0.00 0.13 0.00 97 1013.7
20240623051032 57 0 1.0 3.0 0.00 0.13 0.00 97 1013.8
20240623050530 57 182 0.0 3.0 0.00 0.13 0.00 97 1013.8
20240623050036 57 179 0.0 3.0 0.00 0.13 0.00 97 1014.0
20240623045532 57 192 1.0 4.0 0.00 0.13 0.00 97 1014.1
20240623045030 57 196 1.0 4.0 0.00 0.13 0.00 97 1014.1
20240623044530 57 173 1.0 4.0 0.00 0.13 0.00 97 1014.2
20240623044031 57 0 0.0 4.0 0.00 0.13 0.00 97 1014.2
20240623043531 57 169 0.0 3.0 0.00 0.13 0.00 97 1014.2
20240623043044 57 155 0.0 3.0 0.00 0.13 0.00 97 1014.4
20240623042530 57 172 0.0 5.0 0.00 0.13 0.00 97 1014.4
20240623042030 57 187 1.0 5.0 0.01 0.13 0.00 97 1014.5
20240623041537 57 0 1.0 5.0 0.01 0.13 0.00 97 1014.6
20240623041032 58 168 1.0 5.0 0.01 0.13 0.00 97 1014.5
20240623040527 58 0 0.0 2.0 0.01 0.13 0.00 97 1014.5
20240623040042 58 172 0.0 3.0 0.01 0.13 0.00 97 1014.5
20240623035530 58 0 0.0 3.0 0.01 0.13 0.13 97 1014.6
20240623035030 58 0 0.0 4.0 0.01 0.13 0.13 97 1014.6
20240623034536 58 0 0.0 4.0 0.01 0.13 0.13 97 1014.7
20240623034030 58 188 0.0 2.0 0.01 0.13 0.13 97 1014.9
20240623033527 58 0 0.0 2.0 0.01 0.13 0.13 97 1014.9
20240623033029 58 155 0.0 2.0 0.01 0.13 0.13 97 1014.9
20240623032529 58 0 0.0 3.0 0.01 0.13 0.13 97 1014.8
20240623032034 58 246 0.0 3.0 0.00 0.12 0.12 97 1014.8
20240623031540 58 165 0.0 3.0 0.00 0.12 0.12 97 1014.9
20240623031031 58 0 0.0 5.0 0.00 0.12 0.12 97 1015.1
20240623030531 58 0 0.0 5.0 0.00 0.12 0.12 97 1015.1
20240623030037 58 146 0.0 5.0 0.00 0.12 0.12 97 1015.3
20240623025528 58 140 0.0 5.0 0.00 0.12 0.12 97 1015.3
20240623025028 58 0 1.0 5.0 0.00 0.12 0.12 97 1015.3
20240623024541 58 183 0.0 3.0 0.00 0.12 0.12 97 1015.2
20240623024027 58 0 1.0 6.0 0.00 0.12 0.12 97 1015.2
20240623023528 58 154 0.0 6.0 0.00 0.12 0.12 97 1015.2
20240623023035 58 186 2.0 6.0 0.00 0.12 0.12 97 1015.3
20240623022530 58 169 1.0 6.0 0.00 0.12 0.12 97 1015.2
20240623022030 58 161 0.0 3.0 0.00 0.12 0.12 97 1015.3
20240623021536 58 138 0.0 3.0 0.00 0.12 0.12 97 1015.3
20240623021030 58 168 0.0 3.0 0.00 0.12 0.12 97 1015.2
20240623020528 58 176 0.0 3.0 0.00 0.12 0.12 97 1015.1
20240623020035 58 138 0.0 3.0 0.00 0.12 0.12 97 1015.1
20240623015526 58 172 0.0 3.0 0.00 0.12 0.12 97 1015.2
20240623015027 58 115 1.0 4.0 0.00 0.12 0.12 97 1015.2
20240623014542 58 0 0.0 4.0 0.00 0.12 0.12 97 1015.2
20240623014028 59 175 1.0 4.0 0.00 0.12 0.12 97 1015.2
20240623013527 59 0 0.0 3.0 0.00 0.12 0.12 97 1015.1
20240623013041 59 168 0.0 3.0 0.00 0.12 0.12 97 1015.2
20240623012527 59 0 0.0 2.0 0.00 0.12 0.12 97 1015.2
20240623012034 59 147 0.0 1.0 0.00 0.12 0.12 97 1015.2
20240623011534 59 142 0.0 2.0 0.00 0.12 0.12 97 1015.3
20240623011030 59 0 0.0 2.0 0.00 0.12 0.12 97 1015.2
20240623010538 59 0 0.0 2.0 0.00 0.12 0.12 97 1015.3
20240623010040 59 104 0.0 2.0 0.00 0.12 0.12 97 1015.4
20240623005532 59 0 0.0 2.0 0.00 0.12 0.12 97 1015.5
20240623005030 59 0 0.0 2.0 0.00 0.12 0.12 97 1015.4
20240623004535 59 175 0.0 2.0 0.01 0.12 0.12 97 1015.2
20240623004027 59 0 0.0 2.0 0.01 0.12 0.12 97 1015.3
20240623003530 59 184 0.0 3.0 0.02 0.12 0.12 97 1015.3
20240623003030 59 182 0.0 3.0 0.03 0.12 0.12 97 1015.2
20240623002527 59 0 0.0 3.0 0.05 0.12 0.12 97 1015.3
20240623002028 59 0 0.0 2.0 0.05 0.12 0.12 97 1015.3
20240623001541 59 0 0.0 2.0 0.05 0.12 0.12 97 1015.3
20240623001030 59 0 0.0 2.0 0.05 0.12 0.12 97 1015.4
20240623000530 59 0 0.0 2.0 0.05 0.12 0.12 97 1015.5
20240623000037 59 0 0.0 2.0 0.05 0.12 0.12 97 1015.4
20240622235530 59 0 0.0 2.0 0.05 0.12 0.12 97 1015.3
20240622235029 59 0 0.0 2.0 0.05 0.12 0.12 97 1015.2
20240622234533 59 0 0.0 2.0 0.04 0.11 0.11 96 1015.2
20240622234028 59 192 0.0 4.0 0.04 0.11 0.11 96 1015.2
20240622233527 60 0 1.0 4.0 0.03 0.10 0.10 96 1015.3
20240622233033 60 0 0.0 1.0 0.01 0.08 0.08 97 1015.3
20240622232529 60 0 0.0 1.0 0.00 0.07 0.07 97 1015.5
20240622232033 60 0 0.0 3.0 0.00 0.07 0.07 97 1015.3
20240622231533 60 0 0.0 3.0 0.00 0.07 0.07 97 1015.4
20240622231030 60 0 0.0 3.0 0.00 0.07 0.07 97 1015.3
20240622230530 60 0 0.0 1.0 0.00 0.07 0.07 97 1015.3
20240622230038 60 134 0.0 2.0 0.00 0.07 0.07 97 1015.2
20240622225531 60 0 0.0 2.0 0.00 0.09 0.07 97 1015.3
20240622225032 60 134 0.0 3.0 0.00 0.09 0.07 97 1015.2
20240622224534 60 0 0.0 3.0 0.00 0.09 0.07 97 1015.2
20240622224030 60 188 0.0 3.0 0.00 0.09 0.07 96 1015.3
20240622223527 60 181 0.0 2.0 0.00 0.09 0.07 96 1015.2
20240622223036 60 165 0.0 2.0 0.00 0.09 0.07 96 1015.2
20240622222529 60 0 0.0 3.0 0.00 0.09 0.07 96 1015.1
20240622222028 60 0 0.0 3.0 0.00 0.09 0.07 96 1015.2
20240622221532 60 0 0.0 3.0 0.00 0.09 0.07 96 1015.3
20240622221028 60 193 0.0 4.0 0.00 0.09 0.07 96 1015.4
20240622220528 60 155 1.0 4.0 0.00 0.09 0.07 96 1015.2
20240622220036 60 0 1.0 4.0 0.00 0.09 0.07 96 1015.2
20240622215534 60 0 1.0 5.0 0.00 0.25 0.07 96 1015.2
20240622215027 60 198 1.0 6.0 0.00 0.25 0.07 96 1015.1
20240622214536 60 165 2.0 6.0 0.00 0.25 0.07 96 1015.1
20240622214027 60 186 0.0 7.0 0.00 0.25 0.07 96 1015.1
20240622213527 60 146 1.0 7.0 0.00 0.25 0.07 96 1015.3
20240622213042 60 244 2.0 7.0 0.00 0.25 0.07 96 1015.2
20240622212529 60 181 1.0 7.0 0.00 0.25 0.07 96 1015.3
20240622212030 60 0 1.0 7.0 0.00 0.25 0.07 96 1015.2
20240622211542 60 184 1.0 5.0 0.00 0.25 0.07 96 1015.0
20240622211034 60 186 1.0 6.0 0.00 0.25 0.07 97 1015.0
20240622210530 60 62 1.0 6.0 0.00 0.25 0.07 96 1014.9
20240622210035 60 191 1.0 4.0 0.00 0.25 0.07 96 1015.2
20240622205530 60 175 1.0 5.0 0.00 0.25 0.07 96 1015.1
20240622205034 60 175 2.0 5.0 0.00 0.25 0.07 96 1015.3
20240622204539 60 205 1.0 5.0 0.00 0.25 0.07 96 1015.4
20240622204031 60 169 1.0 4.0 0.00 0.25 0.07 96 1015.1
20240622203533 60 0 0.0 4.0 0.00 0.25 0.07 96 1015.5
20240622203053 60 209 1.0 4.0 0.00 0.25 0.07 96 1015.7
20240622202528 60 223 1.0 3.0 0.00 0.25 0.07 96 1015.7
20240622202034 60 0 0.0 4.0 0.00 0.25 0.07 96 1015.9
20240622201530 60 172 1.0 4.0 0.01 0.25 0.07 96 1015.8
20240622201027 60 188 0.0 4.0 0.01 0.25 0.07 96 1015.7
20240622200530 60 0 0.0 4.0 0.01 0.25 0.07 96 1015.8
20240622200031 60 117 0.0 4.0 0.01 0.25 0.07 96 1015.9
20240622195528 61 208 1.0 4.0 0.01 0.36 0.07 96 1016.1
20240622195028 61 190 1.0 4.0 0.01 0.36 0.07 96 1016.1
20240622194535 61 200 1.0 4.0 0.01 0.36 0.07 96 1016.1
20240622194028 61 180 0.0 5.0 0.01 0.36 0.07 96 1015.8
20240622193527 61 0 1.0 5.0 0.01 0.36 0.07 96 1015.7
20240622193043 61 0 1.0 6.0 0.01 0.36 0.07 95 1015.8
20240622192527 61 183 1.0 6.0 0.01 0.36 0.07 95 1016.0
20240622192028 61 184 1.0 4.0 0.01 0.36 0.07 95 1016.1
20240622191533 61 0 0.0 4.0 0.00 0.35 0.06 95 1016.2
20240622191027 61 200 0.0 3.0 0.00 0.35 0.06 95 1016.3
20240622190530 61 0 0.0 3.0 0.00 0.35 0.06 95 1016.4
20240622190032 61 0 0.0 2.0 0.00 0.35 0.06 96 1016.5
20240622185529 61 199 0.0 3.0 0.00 0.42 0.06 95 1016.5
20240622185027 61 199 0.0 3.0 0.00 0.42 0.06 95 1016.5
20240622184534 61 195 0.0 3.0 0.00 0.42 0.06 94 1016.6
20240622184033 62 188 1.0 3.0 0.00 0.42 0.06 95 1016.5
20240622183529 62 0 0.0 4.0 0.00 0.42 0.06 95 1016.6
20240622183033 62 0 1.0 4.0 0.01 0.42 0.06 95 1016.6
20240622182530 62 262 1.0 3.0 0.01 0.42 0.06 95 1016.5
20240622182033 62 0 0.0 4.0 0.02 0.42 0.06 96 1016.3
20240622181537 62 215 0.0 4.0 0.02 0.42 0.06 96 1016.5
20240622181027 62 193 0.0 2.0 0.02 0.42 0.06 97 1016.6
20240622180527 62 168 0.0 3.0 0.02 0.42 0.06 97 1016.7
20240622180053 61 0 0.0 3.0 0.02 0.42 0.06 96 1016.7
20240622175533 61 0 0.0 5.0 0.02 0.42 0.06 96 1016.8
20240622175028 61 184 0.0 5.0 0.02 0.42 0.06 97 1016.9
20240622174544 61 202 0.0 2.0 0.02 0.42 0.06 97 1016.8
20240622174029 61 202 0.0 2.0 0.02 0.42 0.06 97 1016.9
20240622173529 60 0 0.0 2.0 0.02 0.42 0.06 97 1017.0
20240622173031 60 0 0.0 2.0 0.01 0.41 0.05 96 1017.0
20240622172531 60 164 0.0 2.0 0.01 0.41 0.05 96 1017.3
20240622172030 60 164 0.0 2.0 0.00 0.40 0.04 96 1017.3
20240622171537 60 0 0.0 2.0 0.00 0.40 0.04 96 1017.3
20240622171029 60 0 0.0 2.0 0.01 0.40 0.04 96 1017.4
20240622170529 60 0 0.0 2.0 0.01 0.40 0.04 96 1017.4
20240622170039 60 0 0.0 2.0 0.01 0.40 0.04 96 1017.3
20240622165529 61 57 0.0 2.0 0.01 0.40 0.04 96 1017.4
20240622165030 61 0 0.0 2.0 0.01 0.40 0.04 96 1017.4
20240622164528 61 171 0.0 2.0 0.02 0.40 0.04 97 1017.4
20240622164029 61 0 0.0 2.0 0.02 0.40 0.04 97 1017.4
20240622163533 61 0 0.0 2.0 0.02 0.40 0.04 97 1017.5
20240622163034 60 0 0.0 2.0 0.02 0.40 0.04 97 1017.3
20240622162527 60 194 0.0 2.0 0.02 0.40 0.04 97 1017.4
20240622162032 60 194 0.0 2.0 0.02 0.40 0.04 97 1017.4
20240622161539 60 0 0.0 2.0 0.01 0.39 0.03 97 1017.5
20240622161031 60 184 0.0 1.0 0.01 0.39 0.03 97 1017.5
20240622160529 60 0 0.0 1.0 0.01 0.39 0.03 97 1017.5
20240622160032 60 184 0.0 1.0 0.01 0.39 0.03 96 1017.5
20240622155528 60 0 0.0 3.0 0.01 0.39 0.03 97 1017.6
20240622155032 60 0 0.0 3.0 0.01 0.39 0.03 97 1017.6
20240622154539 60 184 0.0 3.0 0.00 0.38 0.02 97 1017.6
20240622154029 60 169 0.0 3.0 0.00 0.38 0.02 97 1017.6
20240622153530 60 169 0.0 4.0 0.00 0.38 0.02 96 1017.7
20240622153035 60 182 1.0 4.0 0.00 0.38 0.02 96 1017.7
20240622152529 60 0 1.0 3.0 0.00 0.38 0.02 96 1017.7
20240622152029 60 185 0.0 3.0 0.00 0.38 0.02 96 1017.8
20240622151537 60 0 0.0 2.0 0.00 0.38 0.02 96 1017.7
20240622151029 60 0 0.0 2.0 0.00 0.38 0.02 96 1017.7
20240622150527 60 191 0.0 2.0 0.00 0.38 0.02 96 1017.6
20240622150032 60 0 0.0 2.0 0.00 0.38 0.02 96 1017.6
20240622145528 60 0 0.0 2.0 0.00 0.38 0.02 97 1017.7
20240622145028 60 74 0.0 2.0 0.00 0.38 0.02 96 1017.7
20240622144533 60 0 0.0 4.0 0.00 0.38 0.02 96 1017.6
20240622144029 60 0 0.0 4.0 0.00 0.38 0.02 96 1017.7
20240622143528 60 169 1.0 4.0 0.00 0.38 0.02 96 1017.8
20240622143043 60 0 1.0 3.0 0.00 0.38 0.02 96 1017.8
20240622142527 60 151 0.0 4.0 0.00 0.38 0.02 96 1017.7
20240622142027 60 151 0.0 4.0 0.00 0.38 0.02 96 1017.6
20240622141546 61 117 0.0 2.0 0.00 0.38 0.02 96 1017.7
20240622141029 61 153 0.0 3.0 0.00 0.38 0.02 97 1017.8
20240622140530 61 142 1.0 3.0 0.00 0.38 0.02 97 1017.8
20240622140034 61 0 0.0 2.0 0.00 0.38 0.02 97 1017.8
20240622135529 61 0 1.0 2.0 0.00 0.38 0.02 97 1017.7
20240622135029 61 0 0.0 4.0 0.00 0.38 0.02 97 1017.6
20240622134535 61 88 1.0 4.0 0.00 0.38 0.02 97 1017.5
20240622134027 60 0 0.0 3.0 0.01 0.38 0.02 97 1017.4
20240622133527 60 0 0.0 2.0 0.01 0.38 0.02 97 1017.5
20240622133036 60 236 0.0 2.0 0.01 0.38 0.02 97 1017.5
20240622132529 60 0 0.0 2.0 0.01 0.38 0.02 97 1017.6
20240622132027 60 306 0.0 3.0 0.01 0.38 0.02 97 1017.7
20240622131534 60 240 0.0 4.0 0.01 0.38 0.02 97 1017.7
20240622131028 60 251 1.0 4.0 0.01 0.38 0.02 97 1017.7
20240622130529 60 314 1.0 4.0 0.02 0.38 0.02 97 1017.6
20240622130049 60 0 1.0 3.0 0.02 0.38 0.02 97 1018.0
20240622125530 60 0 1.0 3.0 0.02 0.38 0.02 97 1018.1
20240622125027 60 269 0.0 4.0 0.02 0.38 0.02 97 1018.1
20240622124535 60 252 1.0 4.0 0.01 0.37 0.01 97 1018.2
20240622124031 60 336 0.0 3.0 0.01 0.37 0.01 97 1018.2
20240622123529 60 0 1.0 4.0 0.01 0.37 0.01 97 1018.0
20240622123028 60 0 1.0 4.0 0.01 0.37 0.01 97 1018.0
20240622122530 60 306 1.0 4.0 0.01 0.37 0.01 97 1017.9
20240622122029 60 22 1.0 4.0 0.01 0.37 0.01 97 1017.9
20240622121532 60 0 0.0 3.0 0.01 0.37 0.01 97 1017.7
20240622121031 60 0 1.0 3.0 0.01 0.37 0.01 97 1017.8
20240622120531 60 212 0.0 3.0 0.00 0.36 0.00 97 1017.7
20240622120035 60 94 0.0 4.0 0.00 0.36 0.00 97 1017.7
20240622115529 60 259 0.0 4.0 0.00 0.36 0.00 97 1017.6
20240622115026 60 281 0.0 3.0 0.00 0.36 0.00 97 1017.7
20240622114547 60 298 0.0 3.0 0.00 0.36 0.00 97 1017.6
20240622114028 60 352 1.0 3.0 0.00 0.36 0.00 97 1017.7
20240622113532 60 70 1.0 3.0 0.00 0.36 0.00 97 1017.5
20240622113035 60 336 1.0 6.0 0.00 0.36 0.00 97 1017.4
20240622112529 60 315 2.0 6.0 0.00 0.36 0.00 97 1017.5
20240622112027 60 257 1.0 4.0 0.00 0.36 0.00 97 1017.5
20240622111530 60 228 1.0 4.0 0.00 0.36 0.00 97 1017.5
20240622111027 60 241 1.0 4.0 0.00 0.36 0.00 97 1017.6
20240622110529 60 297 2.0 4.0 0.00 0.36 0.00 97 1017.8
20240622110041 60 240 1.0 4.0 0.00 0.36 0.00 97 1017.7
20240622105530 61 288 2.0 4.0 0.00 0.36 0.00 97 1017.6
20240622105028 61 307 1.0 4.0 0.00 0.36 0.00 97 1017.4
20240622104531 61 181 1.0 3.0 0.00 0.36 0.00 97 1017.6
20240622104029 61 0 1.0 3.0 0.00 0.36 0.00 97 1017.5
20240622103529 61 310 0.0 3.0 0.00 0.36 0.00 97 1017.3
20240622103034 61 0 0.0 2.0 0.00 0.36 0.00 97 1017.3
20240622102533 61 0 0.0 2.0 0.00 0.36 0.00 97 1017.5
20240622102032 61 0 0.0 2.0 0.00 0.36 0.00 97 1017.3
20240622101533 61 302 0.0 2.0 0.00 0.36 0.00 97 1017.2
20240622101028 61 0 0.0 2.0 0.00 0.36 0.00 97 1017.4
20240622100528 61 254 0.0 2.0 0.00 0.36 0.00 97 1017.4
20240622100027 61 0 0.0 2.0 0.00 0.36 0.00 97 1017.4
20240622095530 61 0 0.0 2.0 0.00 0.36 0.00 97 1017.2
20240622095027 61 0 0.0 2.0 0.00 0.36 0.00 97 1017.4
20240622094536 61 0 0.0 1.0 0.00 0.36 0.00 97 1017.3
20240622094029 61 0 0.0 1.0 0.00 0.36 0.00 97 1017.1
20240622093530 61 0 0.0 2.0 0.00 0.36 0.00 97 1017.1
20240622093034 61 0 0.0 2.0 0.00 0.36 0.00 97 1017.1
20240622092530 61 0 0.0 2.0 0.00 0.36 0.00 97 1016.9
20240622092030 61 0 0.0 2.0 0.00 0.36 0.00 97 1016.9
20240622091534 61 0 0.0 2.0 0.00 0.36 0.00 97 1016.7
20240622091029 61 0 0.0 1.0 0.00 0.36 0.00 97 1017.0
20240622090529 61 0 0.0 1.0 0.00 0.36 0.00 97 1017.1
20240622090036 61 0 0.0 3.0 0.00 0.36 0.00 97 1017.1
20240622085529 61 0 0.0 3.0 0.00 0.36 0.00 97 1017.1
20240622085031 61 50 0.0 2.0 0.00 0.36 0.00 97 1017.2
20240622084538 61 0 0.0 3.0 0.00 0.36 0.00 97 1017.2
20240622084030 61 0 0.0 3.0 0.00 0.36 0.00 97 1017.3
20240622083533 61 0 0.0 3.0 0.00 0.36 0.00 97 1017.2
20240622083043 61 0 0.0 3.0 0.00 0.36 0.00 97 1017.0
20240622082531 61 184 0.0 3.0 0.00 0.36 0.00 97 1017.2
20240622082030 61 209 0.0 3.0 0.00 0.36 0.00 97 1017.0
20240622081538 61 0 0.0 3.0 0.00 0.36 0.00 97 1017.1
20240622081032 61 173 0.0 3.0 0.00 0.36 0.00 96 1017.0
20240622080536 61 166 0.0 4.0 0.00 0.36 0.00 96 1017.0
20240622080040 62 192 0.0 4.0 0.00 0.36 0.00 97 1017.0
20240622075530 62 0 0.0 2.0 0.00 0.36 0.00 97 1017.1
20240622075030 62 0 0.0 2.0 0.00 0.36 0.00 97 1017.1
20240622074538 62 0 0.0 2.0 0.00 0.36 0.00 97 1017.3
20240622074030 62 0 0.0 1.0 0.00 0.36 0.00 97 1017.5
20240622073528 62 0 0.0 1.0 0.00 0.36 0.00 97 1017.5
20240622073035 62 128 0.0 1.0 0.00 0.36 0.00 97 1017.6
20240622072529 62 0 0.0 1.0 0.00 0.36 0.00 97 1017.6
20240622072029 62 0 0.0 1.0 0.00 0.36 0.00 97 1017.6